EW4561 Weather Reports


Display with metric or nautical units.
time (UTC)temp
F
wind
direction
speed
MPH
gust
MPH
rain 1hr
in
rain 24hr
in
rain mn
in
humidity
%
barometer
mb
20260503174241 58 0 0.0 0.0 0.00 0.00 0.00 82 1014.1
20260503173641 58 0 0.0 0.0 0.00 0.00 0.00 82 1014.1
20260503173042 58 0 0.0 0.0 0.00 0.00 0.00 82 1014.1
20260503172441 58 0 0.0 0.0 0.00 0.00 0.00 82 1014.2
20260503171841 58 0 0.0 0.0 0.00 0.00 0.00 82 1014.2
20260503171241 58 0 0.0 0.0 0.00 0.00 0.00 82 1014.2
20260503170641 58 0 0.0 0.0 0.00 0.00 0.00 82 1014.2
20260503150641 59 0 0.0 0.0 0.00 0.00 0.00 80 1015.3
20260503130640 61 0 0.0 0.0 0.00 0.00 0.00 78 1016.2
20260503081240 72 86 2.0 6.0 0.00 0.00 0.00 64 1016.0
20260503080641 73 84 2.0 8.0 0.00 0.00 0.00 64 1016.0
20260503072441 74 86 3.0 9.0 0.00 0.00 0.00 57 1015.6
20260503071840 75 82 3.0 8.0 0.00 0.00 0.00 56 1015.6
20260503071241 75 85 3.0 8.0 0.00 0.00 0.00 55 1015.5
20260503070641 76 85 3.0 9.0 0.00 0.00 0.00 55 1015.4
20260503054841 79 46 4.0 10.0 0.00 0.00 0.00 51 1015.7
20260503054241 79 56 4.0 8.0 0.00 0.00 0.00 50 1015.8
20260503053640 79 64 4.0 9.0 0.00 0.00 0.00 50 1015.8
20260503053041 79 85 3.0 9.0 0.00 0.00 0.00 51 1015.9
20260503052440 78 88 2.0 9.0 0.00 0.00 0.00 51 1015.8
20260503051240 77 67 3.0 5.0 0.00 0.00 0.00 51 1016.1
20260503050641 77 68 3.0 5.0 0.00 0.00 0.00 52 1016.1
20260503050040 77 63 3.0 6.0 0.00 0.00 0.00 51 1016.2
20260503045441 78 44 3.0 6.0 0.00 0.00 0.00 51 1016.2
20260503044241 78 46 2.0 9.0 0.00 0.00 0.00 51 1016.2
20260503043640 78 48 3.0 6.0 0.00 0.00 0.00 51 1016.3
20260503043040 78 28 3.0 9.0 0.00 0.00 0.00 51 1016.3
20260503042441 78 50 4.0 10.0 0.00 0.00 0.00 51 1016.4
20260503041839 78 50 4.0 8.0 0.00 0.00 0.00 51 1016.4
20260503041240 78 57 3.0 8.0 0.00 0.00 0.00 51 1016.5
20260503040640 78 29 3.0 8.0 0.00 0.00 0.00 52 1016.6
20260503035440 78 6 2.0 8.0 0.00 0.00 0.00 52 1016.7
20260503034839 78 346 2.0 6.0 0.00 0.00 0.00 52 1016.8
20260503034240 78 21 2.0 6.0 0.00 0.00 0.00 52 1016.8
20260503033639 78 51 3.0 8.0 0.00 0.00 0.00 52 1016.9
20260503033040 78 42 3.0 9.0 0.00 0.00 0.00 52 1017.0
20260503032440 78 31 3.0 9.0 0.00 0.00 0.00 53 1017.1
20260503031841 78 58 3.0 8.0 0.00 0.00 0.00 53 1017.1
20260503031241 78 56 3.0 6.0 0.00 0.00 0.00 53 1017.4
20260503030640 78 56 3.0 6.0 0.00 0.00 0.00 53 1017.4
20260503030040 78 32 3.0 8.0 0.00 0.00 0.00 53 1017.5
20260503025440 78 32 3.0 8.0 0.00 0.00 0.00 54 1017.5
20260503024840 78 28 3.0 8.0 0.00 0.00 0.00 55 1017.6
20260503024241 77 44 3.0 8.0 0.00 0.00 0.00 55 1017.8
20260503023640 77 46 3.0 8.0 0.00 0.00 0.00 55 1018.0
20260503023040 76 46 3.0 8.0 0.00 0.00 0.00 55 1018.1
20260503022440 76 44 3.0 9.0 0.00 0.00 0.00 56 1018.2
20260503021840 76 32 3.0 8.0 0.00 0.00 0.00 57 1018.3
20260503021239 76 23 3.0 8.0 0.00 0.00 0.00 56 1018.2
20260503020639 75 45 3.0 8.0 0.00 0.00 0.00 57 1018.5
20260503020040 75 70 3.0 9.0 0.00 0.00 0.00 58 1018.7
20260503015440 75 59 2.0 9.0 0.00 0.00 0.00 59 1018.9
20260503014841 74 54 1.0 8.0 0.00 0.00 0.00 60 1019.1
20260503014240 74 21 2.0 5.0 0.00 0.00 0.00 61 1019.2
20260503013640 74 351 3.0 9.0 0.00 0.00 0.00 61 1019.4
20260503013040 74 338 3.0 9.0 0.00 0.00 0.00 61 1019.5
20260503012440 73 11 3.0 8.0 0.00 0.00 0.00 61 1019.5
20260503011840 73 8 3.0 8.0 0.00 0.00 0.00 61 1019.6
20260503011240 73 352 3.0 8.0 0.00 0.00 0.00 62 1019.7
20260503010639 72 340 2.0 9.0 0.00 0.00 0.00 63 1019.9
20260503010040 72 58 1.0 9.0 0.00 0.00 0.00 65 1019.9
20260503005440 71 69 0.0 6.0 0.00 0.00 0.00 66 1020.0
20260503004840 71 67 1.0 3.0 0.00 0.00 0.00 67 1020.2
20260503004241 71 349 1.0 4.0 0.00 0.00 0.00 68 1020.3
20260503003040 70 83 1.0 5.0 0.00 0.00 0.00 70 1020.3
20260503002440 70 312 0.0 4.0 0.00 0.00 0.00 71 1020.4
20260503001840 69 314 0.0 1.0 0.00 0.00 0.00 73 1020.6
20260503000640 68 0 0.0 0.0 0.00 0.00 0.00 77 1020.5
20260502235440 67 313 0.0 4.0 0.00 0.00 0.00 80 1020.5
20260502234840 66 317 0.0 4.0 0.00 0.00 0.00 81 1020.6
20260502234240 65 0 0.0 0.0 0.00 0.00 0.00 82 1020.6
20260502233640 65 0 0.0 0.0 0.00 0.00 0.00 83 1020.6
20260502232440 64 0 0.0 0.0 0.00 0.00 0.00 84 1020.7
20260502231840 64 0 0.0 0.0 0.00 0.00 0.00 84 1020.8
20260502231240 63 0 0.0 0.0 0.00 0.00 0.00 85 1021.0
20260502230640 63 0 0.0 0.0 0.00 0.00 0.00 85 1021.1
20260502230040 62 0 0.0 0.0 0.00 0.00 0.00 85 1021.1
20260502225440 62 0 0.0 0.0 0.00 0.00 0.00 85 1021.2
20260502224841 61 0 0.0 0.0 0.00 0.00 0.00 85 1021.2
20260502224241 61 0 0.0 0.0 0.00 0.00 0.00 85 1021.2
20260502223640 60 0 0.0 0.0 0.00 0.00 0.00 84 1021.3
20260502223039 60 0 0.0 0.0 0.00 0.00 0.00 85 1021.2
20260502222440 60 0 0.0 0.0 0.00 0.00 0.00 84 1021.4
20260502221840 60 0 0.0 0.0 0.00 0.00 0.00 84 1021.3
20260502221240 59 0 0.0 0.0 0.00 0.00 0.00 84 1021.1
20260502220039 58 0 0.0 0.0 0.00 0.00 0.00 84 1021.0
20260502215440 58 0 0.0 0.0 0.00 0.00 0.00 84 1021.0
20260502214840 58 0 0.0 0.0 0.00 0.00 0.00 84 1021.0
20260502214239 57 0 0.0 0.0 0.00 0.00 0.00 84 1020.7
20260502213641 57 0 0.0 0.0 0.00 0.00 0.00 83 1020.7
20260502213041 57 0 0.0 0.0 0.00 0.00 0.00 83 1020.7
20260502212440 57 0 0.0 0.0 0.00 0.00 0.00 83 1020.6
20260502211840 57 0 0.0 0.0 0.00 0.00 0.00 83 1020.4
20260502211240 57 0 0.0 0.0 0.00 0.00 0.00 83 1020.3
20260502210040 57 0 0.0 0.0 0.00 0.00 0.00 83 1020.3
20260502205440 57 0 0.0 0.0 0.00 0.00 0.00 83 1020.4
20260502204839 57 0 0.0 0.0 0.00 0.00 0.00 83 1020.5
20260502204239 57 0 0.0 0.0 0.00 0.00 0.00 83 1020.3
20260502203640 57 0 0.0 0.0 0.00 0.00 0.00 83 1020.2
20260502203040 57 0 0.0 0.0 0.00 0.00 0.00 83 1020.3
20260502202440 57 0 0.0 0.0 0.00 0.00 0.00 82 1020.2
20260502201840 57 0 0.0 0.0 0.00 0.00 0.00 82 1020.1
20260502200640 57 0 0.0 0.0 0.00 0.00 0.00 83 1020.3
20260502195439 58 0 0.0 0.0 0.00 0.00 0.00 83 1020.3
20260502194840 58 0 0.0 0.0 0.00 0.00 0.00 82 1020.3
20260502194240 58 0 0.0 0.0 0.00 0.00 0.00 82 1020.4
20260502193640 58 0 0.0 0.0 0.00 0.00 0.00 82 1020.2
20260502192440 58 0 0.0 0.0 0.00 0.00 0.00 82 1020.1
20260502191840 58 0 0.0 0.0 0.00 0.00 0.00 82 1020.1
20260502191239 58 0 0.0 0.0 0.00 0.00 0.00 82 1020.1
20260502190639 58 0 0.0 0.0 0.00 0.00 0.00 82 1020.1
20260502190039 58 0 0.0 0.0 0.00 0.00 0.00 82 1020.2
20260502185439 58 0 0.0 0.0 0.00 0.00 0.00 82 1020.2
20260502184840 58 0 0.0 0.0 0.00 0.00 0.00 82 1020.2
20260502184240 58 0 0.0 0.0 0.00 0.00 0.00 82 1020.1
20260502183640 58 0 0.0 0.0 0.00 0.00 0.00 82 1020.1
20260502183039 58 0 0.0 0.0 0.00 0.00 0.00 82 1020.2
20260502182439 58 0 0.0 0.0 0.00 0.00 0.00 82 1020.0
20260502181240 58 0 0.0 0.0 0.00 0.00 0.00 82 1020.1
20260502180640 58 0 0.0 0.0 0.00 0.00 0.00 82 1020.1